Location: B?ogocice
(50.2413°N, 20.2361°E)
Time: 15:29:06
(UTC+00:00)

Cosmos 2228 - Pass Details

Date: 15 June 2024
Orbit: 576 x 604 km, 82.5° (Epoch: 15 July)

Event Time Altitude Azimuth Distance (km) Brightness Sun altitude
Rises 00:08:20 0° 352° (N) 2,873 7.6 -13.9°
Reaches altitude 10° 00:10:36 10° 356° (N) 1,963 6.7 -13.7°
Maximum altitude 00:14:54 62° 77° (ENE) 683 3.4 -13.5°
Enters shadow 00:18:59 11° 158° (SSE) 1,869 5.1 -13.2°
